Simultaneous Nadir Overpasses (SNOs) Predictions

Prediction of SNOs between LANDSAT-8 and TERRA Satellite Orbit:

Table of predicted SNOs for the next 14.0 days since TLE Epoch: 7/27/2024
Index Date (LANDSAT-8) Time (LANDSAT-8) Lat,Lon (LANDSAT-8) SZA (LANDSAT-8 ) Date (TERRA) Time (TERRA) Lat,Lon (TERRA) SZA (TERRA ) Distance(km) Time Diff (sec)
1 07/27/2024 18:31:06 -81.76, 151.90 111.88 07/27/2024 18:32:17 -81.75, 152.07 111.82 2.93 71
2 07/27/2024 19:20:33 81.76, -40.56 68.12 07/27/2024 19:21:39 81.76, -40.48 68.17 1.31 66
3 07/27/2024 20:09:59 -81.76, 127.21 111.86 07/27/2024 20:10:59 -81.76, 127.32 111.81 1.83 60
4 07/27/2024 20:59:26 81.76, -65.25 68.14 07/27/2024 21:00:21 81.76, -65.23 68.18 0.44 55
5 07/27/2024 21:48:52 -81.76, 102.52 111.84 07/27/2024 21:49:41 -81.76, 102.57 111.80 0.77 49
6 07/27/2024 22:38:18 81.75, -89.51 68.22 07/27/2024 22:39:02 81.75, -89.57 68.23 0.91 44
7 07/27/2024 23:27:45 -81.76, 77.84 111.82 07/27/2024 23:28:23 -81.76, 77.82 111.80 0.50 38
8 07/28/2024 00:17:11 81.75,-114.20 68.24 07/28/2024 00:17:44 81.76,-114.32 68.24 1.96 33
9 07/28/2024 01:06:37 -81.75, 53.57 111.74 07/28/2024 01:07:04 -81.75, 53.48 111.74 1.45 27
10 07/28/2024 01:56:04 81.75,-138.89 68.26 07/28/2024 01:56:26 81.76,-139.07 68.25 3.04 22
11 07/28/2024 02:45:29 -81.75, 28.89 111.72 07/28/2024 02:45:45 -81.75, 28.73 111.73 2.52 16
12 07/28/2024 03:34:56 81.75,-163.57 68.28 07/28/2024 03:35:06 81.75,-163.41 68.30 2.66 10
13 07/28/2024 04:24:22 -81.75, 4.20 111.70 07/28/2024 04:24:26 -81.74, 4.39 111.68 3.16 4
14 07/28/2024 05:13:49 81.75, 171.74 68.30 07/28/2024 05:13:48 81.75, 171.84 68.31 1.57 1
15 07/28/2024 06:03:15 -81.75, -20.49 111.68 07/28/2024 06:03:08 -81.74, -20.36 111.67 2.06 7
16 07/28/2024 06:52:42 81.75, 147.05 68.32 07/28/2024 06:52:30 81.75, 147.08 68.32 0.53 12
17 07/28/2024 07:42:08 -81.75, -45.17 111.66 07/28/2024 07:41:50 -81.75, -45.11 111.66 0.96 18
18 07/28/2024 08:31:34 81.74, 122.78 68.39 07/28/2024 08:31:11 81.74, 122.74 68.37 0.71 23
19 07/28/2024 09:21:01 -81.75, -69.86 111.64 07/28/2024 09:20:32 -81.75, -69.87 111.66 0.25 29
20 07/28/2024 10:10:27 81.74, 98.10 68.41 07/28/2024 10:09:53 81.74, 97.99 68.38 1.70 34
21 07/28/2024 10:59:53 -81.74, -94.13 111.57 07/28/2024 10:59:13 -81.74, -94.21 111.60 1.28 40
22 07/28/2024 11:49:20 81.74, 73.41 68.43 07/28/2024 11:48:35 81.75, 73.24 68.39 2.77 45
23 07/28/2024 12:38:46 -81.74,-118.82 111.54 07/28/2024 12:37:55 -81.74,-118.96 111.59 2.32 51
24 07/28/2024 13:28:13 81.74, 48.72 68.45 07/28/2024 13:27:16 81.73, 48.90 68.44 2.94 57
25 07/28/2024 14:17:40 -81.75,-143.92 111.58 07/28/2024 14:16:37 -81.74,-143.71 111.59 3.36 63
26 07/28/2024 15:07:06 81.74, 24.03 68.48 07/28/2024 15:05:58 81.74, 24.14 68.45 1.84 68



Historial Predications of SNOs between LANDSAT-8 and TERRA
